YC0ACE-13 Weather Reports


time (UTC)temp
C
wind
direction
speed
KPH
gust
KPH
rain 1hr
cm
rain 24hr
cm
rain mn
cm
humidity
%
barometer
mb
20260506235024 27 178 1.6 1.6 0.00 0.00 0.00 85 1014.6
20260506234525 27 204 1.6 1.6 0.00 0.00 0.00 85 1014.6
20260506234025 27 187 3.2 3.2 0.00 0.00 0.00 85 1014.6
20260506233524 27 182 1.6 3.2 0.00 0.00 0.00 85 1014.6
20260506233025 27 180 3.2 8.0 0.00 0.00 0.00 86 1014.6
20260506232525 27 182 1.6 1.6 0.00 0.00 0.00 86 1014.6
20260506232024 27 148 1.6 1.6 0.00 0.00 0.00 86 1014.6
20260506231524 27 176 1.6 1.6 0.00 0.00 0.00 87 1014.6
20260506231024 27 188 0.0 0.0 0.00 0.00 0.00 87 1014.2
20260506230525 27 203 0.0 0.0 0.00 0.00 0.00 87 1014.6
20260506230024 27 183 1.6 1.6 0.00 0.00 0.00 87 1014.2
20260506225524 27 202 1.6 1.6 0.00 0.00 0.00 87 1014.6
20260506225027 27 198 0.0 0.0 0.00 0.00 0.00 87 1014.6
20260506224525 27 196 1.6 3.2 0.00 0.00 0.00 87 1014.2
20260506224024 27 189 1.6 1.6 0.00 0.00 0.00 87 1014.2
20260506223524 27 161 1.6 1.6 0.00 0.00 0.00 87 1013.9
20260506223024 27 124 3.2 3.2 0.00 0.00 0.00 87 1013.9
20260506222524 27 182 0.0 1.6 0.00 0.00 0.00 88 1014.2
20260506222024 27 175 0.0 0.0 0.00 0.00 0.00 88 1013.9
20260506221524 27 200 0.0 0.0 0.00 0.00 0.00 88 1014.2
20260506221026 27 196 0.0 1.6 0.00 0.00 0.00 88 1013.9
20260506220524 27 188 0.0 0.0 0.00 0.00 0.00 87 1014.2
20260506220025 27 181 1.6 3.2 0.00 0.00 0.00 87 1013.9
20260506215524 27 184 1.6 1.6 0.00 0.00 0.00 87 1013.9
20260506215024 27 179 3.2 3.2 0.00 0.00 0.00 87 1013.9
20260506214524 27 197 3.2 3.2 0.00 0.00 0.00 87 1013.9
20260506214024 27 222 3.2 3.2 0.00 0.00 0.00 87 1013.9
20260506213524 27 205 0.0 0.0 0.00 0.00 0.00 87 1013.9
20260506213025 27 201 1.6 1.6 0.00 0.00 0.00 87 1013.9
20260506212524 27 202 0.0 0.0 0.00 0.00 0.00 87 1013.5
20260506212024 27 184 0.0 1.6 0.00 0.00 0.00 87 1013.5
20260506211524 27 185 0.0 0.0 0.00 0.00 0.00 87 1013.9
20260506211024 27 171 3.2 3.2 0.00 0.00 0.00 87 1013.9
20260506210524 27 188 0.0 1.6 0.00 0.00 0.00 87 1013.9
20260506210025 27 179 0.0 1.6 0.00 0.00 0.00 87 1013.9
20260506205524 27 195 0.0 0.0 0.00 0.00 0.00 87 1013.9
20260506205026 27 206 1.6 1.6 0.00 0.00 0.00 87 1013.9
20260506204525 27 187 1.6 1.6 0.00 0.00 0.00 87 1013.9
20260506204024 27 191 1.6 3.2 0.00 0.00 0.00 87 1013.9
20260506203524 27 166 3.2 3.2 0.00 0.00 0.00 87 1013.5
20260506203024 27 164 1.6 1.6 0.00 0.00 0.00 86 1013.9
20260506202525 27 150 1.6 1.6 0.00 0.00 0.00 86 1013.5
20260506202024 27 152 4.8 4.8 0.00 0.00 0.00 86 1013.9
20260506201524 27 153 4.8 4.8 0.00 0.00 0.00 86 1013.5
20260506201024 27 163 1.6 3.2 0.00 0.00 0.00 86 1013.5
20260506200524 27 170 0.0 1.6 0.00 0.00 0.00 85 1013.5
20260506200024 27 168 0.0 1.6 0.00 0.00 0.00 85 1013.9
20260506195525 27 167 3.2 3.2 0.00 0.00 0.00 85 1013.5
20260506195028 27 156 3.2 3.2 0.00 0.00 0.00 85 1013.9
20260506194525 27 138 4.8 4.8 0.00 0.00 0.00 84 1013.5
20260506194025 28 134 3.2 3.2 0.00 0.00 0.00 85 1013.9
20260506193528 28 145 4.8 4.8 0.00 0.00 0.00 84 1013.5
20260506193026 28 157 1.6 3.2 0.00 0.00 0.00 84 1013.9
20260506192525 28 111 3.2 3.2 0.00 0.00 0.00 84 1013.9
20260506192024 28 125 3.2 3.2 0.00 0.00 0.00 84 1013.9
20260506191526 28 156 1.6 1.6 0.00 0.00 0.00 84 1013.9
20260506191028 28 184 1.6 3.2 0.00 0.00 0.00 84 1013.9
20260506190526 28 125 4.8 4.8 0.00 0.00 0.00 84 1013.9
20260506190024 28 162 1.6 1.6 0.00 0.00 0.00 84 1013.9
20260506185525 28 187 0.0 0.0 0.00 0.00 0.00 84 1013.9
20260506185025 28 176 1.6 1.6 0.00 0.00 0.00 84 1013.9
20260506184524 28 124 3.2 3.2 0.00 0.00 0.00 84 1013.9
20260506184024 28 184 6.4 8.0 0.00 0.00 0.00 84 1014.2
20260506183524 28 193 3.2 4.8 0.00 0.00 0.00 83 1014.2
20260506183024 28 174 3.2 3.2 0.00 0.00 0.00 83 1014.2
20260506182525 28 188 0.0 0.0 0.00 0.00 0.00 82 1013.9
20260506182024 28 143 1.6 1.6 0.00 0.00 0.00 82 1014.2
20260506181524 28 165 1.6 1.6 0.00 0.00 0.00 82 1014.2
20260506181024 28 119 6.4 8.0 0.00 0.00 0.00 82 1014.2
20260506180525 28 122 1.6 1.6 0.00 0.00 0.00 82 1014.2
20260506180025 28 114 3.2 3.2 0.00 0.00 0.00 82 1014.6
20260506175527 28 120 1.6 1.6 0.00 0.00 0.00 82 1014.6
20260506175026 28 139 6.4 8.0 0.00 0.00 0.00 82 1014.6
20260506174525 28 148 3.2 3.2 0.00 0.00 0.00 82 1014.6
20260506174025 28 111 3.2 3.2 0.00 0.00 0.00 82 1014.6
20260506173524 28 144 4.8 4.8 0.00 0.00 0.00 82 1014.6
20260506173025 28 117 6.4 8.0 0.00 0.00 0.00 82 1014.6
20260506172525 28 151 1.6 3.2 0.00 0.00 0.00 83 1014.6
20260506172024 28 157 1.6 1.6 0.00 0.00 0.00 83 1014.6
20260506171525 28 166 1.6 3.2 0.00 0.00 0.00 83 1014.6
20260506171025 28 145 3.2 3.2 0.00 0.00 0.00 83 1014.6
20260506170527 28 139 1.6 3.2 0.00 0.00 0.00 83 1014.6
20260506170024 28 114 4.8 8.0 0.00 0.00 0.00 83 1014.6
20260506165524 28 110 4.8 4.8 0.00 0.00 0.00 83 1014.6
20260506165024 28 138 3.2 3.2 0.00 0.00 0.00 83 1014.6
20260506164525 28 149 1.6 1.6 0.00 0.00 0.00 83 1014.9
20260506164025 28 117 4.8 4.8 0.00 0.00 0.00 83 1014.9
20260506163524 28 147 3.2 3.2 0.00 0.00 0.00 83 1014.6
20260506163025 28 124 3.2 3.2 0.00 0.00 0.00 83 1014.9
20260506162524 28 139 1.6 3.2 0.00 0.00 0.00 83 1014.9
20260506162024 28 150 3.2 3.2 0.00 0.00 0.00 83 1014.9
20260506161525 28 99 4.8 4.8 0.00 0.00 0.00 82 1014.6
20260506161025 28 125 4.8 8.0 0.00 0.00 0.00 82 1014.9
20260506160525 28 136 3.2 3.2 0.00 0.00 0.00 82 1014.9
20260506160025 28 89 6.4 9.7 0.00 0.00 0.00 82 1014.9
20260506155525 28 104 4.8 4.8 0.00 0.00 0.00 82 1014.9
20260506155024 28 159 3.2 3.2 0.00 0.00 0.00 82 1014.9
20260506154525 28 134 1.6 3.2 0.00 0.00 0.00 82 1014.6
20260506154025 28 169 0.0 0.0 0.00 0.00 0.00 82 1014.6
20260506153524 28 138 1.6 1.6 0.00 0.00 0.00 81 1014.6
20260506153026 28 142 1.6 1.6 0.00 0.00 0.00 81 1014.9
20260506152525 28 131 1.6 1.6 0.00 0.00 0.00 81 1014.6
20260506152024 28 132 4.8 4.8 0.00 0.00 0.00 81 1014.9
20260506151524 28 150 1.6 1.6 0.00 0.00 0.00 81 1014.9
20260506151024 28 124 3.2 3.2 0.00 0.00 0.00 81 1014.9
20260506150526 29 130 4.8 4.8 0.00 0.00 0.00 81 1014.9
20260506150026 29 181 1.6 1.6 0.00 0.00 0.00 81 1014.6
20260506145527 29 120 1.6 1.6 0.00 0.00 0.00 81 1014.9
20260506145024 29 132 3.2 3.2 0.00 0.00 0.00 81 1014.9
20260506144525 29 67 6.4 8.0 0.00 0.00 0.00 81 1014.9
20260506144025 29 116 3.2 3.2 0.00 0.00 0.00 81 1014.9
20260506143526 29 122 4.8 8.0 0.00 0.00 0.00 80 1014.9
20260506143024 29 108 3.2 3.2 0.00 0.00 0.00 81 1014.9
20260506142525 29 114 4.8 4.8 0.00 0.00 0.00 81 1014.9
20260506142025 29 76 3.2 4.8 0.00 0.00 0.00 80 1014.6
20260506141525 29 200 1.6 1.6 0.00 0.00 0.00 80 1014.6
20260506141025 29 116 1.6 3.2 0.00 0.00 0.00 80 1014.6
20260506140525 29 141 1.6 3.2 0.00 0.00 0.00 80 1014.6
20260506140025 29 147 1.6 3.2 0.00 0.00 0.00 80 1014.2
20260506135526 29 93 1.6 3.2 0.00 0.00 0.00 81 1014.6
20260506135024 29 167 0.0 0.0 0.00 0.00 0.00 81 1014.6
20260506134524 29 195 0.0 0.0 0.00 0.00 0.00 80 1014.2
20260506134025 29 125 4.8 4.8 0.00 0.00 0.00 80 1014.6
20260506133525 29 75 3.2 3.2 0.00 0.00 0.00 80 1014.6
20260506133025 29 195 0.0 1.6 0.00 0.00 0.00 80 1014.6
20260506132525 29 106 3.2 3.2 0.00 0.00 0.00 80 1014.2
20260506132024 29 110 4.8 4.8 0.00 0.00 0.00 80 1014.2
20260506131524 29 126 6.4 8.0 0.00 0.00 0.00 80 1014.6
20260506131025 29 125 1.6 1.6 0.00 0.00 0.00 79 1014.2
20260506130525 29 82 4.8 4.8 0.00 0.00 0.00 79 1014.2
20260506130024 29 108 3.2 3.2 0.00 0.00 0.00 79 1014.2
20260506125527 29 109 3.2 3.2 0.00 0.00 0.00 79 1014.2
20260506125025 29 108 4.8 4.8 0.00 0.00 0.00 79 1013.9
20260506124524 29 137 4.8 4.8 0.00 0.00 0.00 79 1013.9
20260506124026 29 110 1.6 3.2 0.00 0.00 0.00 78 1014.2
20260506123524 29 64 3.2 4.8 0.00 0.00 0.00 78 1013.9
20260506123024 29 171 1.6 1.6 0.00 0.00 0.00 78 1013.9
20260506122524 30 122 6.4 8.0 0.00 0.00 0.00 77 1013.5
20260506122024 30 155 1.6 1.6 0.00 0.00 0.00 77 1013.9
20260506121525 30 91 1.6 3.2 0.00 0.00 0.00 76 1013.9
20260506121026 30 130 6.4 8.0 0.00 0.00 0.00 76 1013.5
20260506120524 30 145 1.6 1.6 0.00 0.00 0.00 75 1013.5
20260506120025 30 71 1.6 1.6 0.00 0.00 0.00 75 1013.2
20260506115524 30 53 1.6 3.2 0.00 0.00 0.00 75 1013.2
20260506115025 30 164 1.6 3.2 0.00 0.00 0.00 75 1013.2
20260506114524 30 110 1.6 3.2 0.00 0.00 0.00 74 1013.2
20260506114024 30 4 3.2 3.2 0.00 0.00 0.00 75 1013.2
20260506113530 30 20 3.2 8.0 0.00 0.00 0.00 75 1013.2
20260506113025 30 36 1.6 3.2 0.00 0.00 0.00 75 1012.9
20260506112526 30 200 1.6 1.6 0.00 0.00 0.00 76 1012.9
20260506112024 30 4 4.8 4.8 0.00 0.00 0.00 76 1012.9
20260506111524 30 274 4.8 4.8 0.00 0.00 0.00 76 1012.9
20260506111024 30 9 4.8 4.8 0.00 0.00 0.00 76 1012.5
20260506110527 30 39 4.8 8.0 0.00 0.00 0.00 76 1012.5
20260506110024 30 2 1.6 3.2 0.00 0.00 0.00 76 1012.5
20260506105524 30 4 6.4 8.0 0.00 0.00 0.00 76 1012.2
20260506105026 30 37 9.7 11.3 0.00 0.00 0.00 75 1012.2
20260506104526 30 349 9.7 11.3 0.00 0.00 0.00 75 1012.2
20260506104024 30 9 4.8 4.8 0.00 0.00 0.00 75 1012.2
20260506103524 30 15 3.2 3.2 0.00 0.00 0.00 75 1012.2
20260506103025 30 30 8.0 12.9 0.00 0.00 0.00 75 1012.2
20260506102525 30 55 1.6 3.2 0.00 0.00 0.00 75 1011.9
20260506102024 30 158 0.0 0.0 0.00 0.00 0.00 75 1011.9
20260506101525 30 39 8.0 11.3 0.00 0.00 0.00 75 1012.2
20260506101031 30 26 9.7 11.3 0.00 0.00 0.00 74 1012.2
20260506100528 31 14 1.6 4.8 0.00 0.00 0.00 74 1011.9
20260506100026 31 349 6.4 9.7 0.00 0.00 0.00 73 1011.9
20260506095525 31 35 8.0 11.3 0.00 0.00 0.00 73 1011.9
20260506095024 31 352 9.7 12.9 0.00 0.00 0.00 73 1011.9
20260506094525 31 128 3.2 3.2 0.00 0.00 0.00 72 1011.9
20260506094024 31 8 3.2 4.8 0.00 0.00 0.00 71 1011.5
20260506093524 31 24 4.8 8.0 0.00 0.00 0.00 71 1011.9
20260506093025 31 35 11.3 14.5 0.00 0.00 0.00 71 1011.9
20260506092525 31 2 8.0 11.3 0.00 0.00 0.00 70 1011.5
20260506092025 31 18 11.3 16.1 0.00 0.00 0.00 70 1011.5
20260506091524 31 4 9.7 11.3 0.00 0.00 0.00 70 1011.5
20260506091028 31 114 8.0 11.3 0.00 0.00 0.00 69 1011.5
20260506090524 31 278 0.0 1.6 0.00 0.00 0.00 70 1011.5
20260506090024 31 332 4.8 9.7 0.00 0.00 0.00 69 1011.2
20260506085524 32 299 4.8 9.7 0.00 0.00 0.00 69 1011.5
20260506085024 32 309 11.3 14.5 0.00 0.00 0.00 67 1011.5
20260506084526 32 30 8.0 9.7 0.00 0.00 0.00 68 1011.5
20260506084024 32 355 8.0 14.5 0.00 0.00 0.00 68 1011.2
20260506083530 32 346 9.7 14.5 0.00 0.00 0.00 68 1011.5
20260506083024 32 15 8.0 11.3 0.00 0.00 0.00 68 1011.5
20260506082525 32 17 6.4 8.0 0.00 0.00 0.00 68 1011.5
20260506082025 31 7 4.8 4.8 0.00 0.00 0.00 69 1011.2
20260506081525 32 343 4.8 8.0 0.00 0.00 0.00 69 1011.2
20260506081024 32 348 4.8 4.8 0.00 0.00 0.00 70 1011.2
20260506080524 32 165 3.2 3.2 0.00 0.00 0.00 69 1011.2
20260506073524 32 322 3.2 4.8 0.00 0.00 0.00 69 1011.2
20260506073024 32 16 6.4 9.7 0.00 0.00 0.00 69 1011.5
20260506072524 32 31 3.2 4.8 0.00 0.00 0.00 68 1011.2
20260506072026 32 288 4.8 4.8 0.00 0.00 0.00 69 1011.5
20260506071524 32 334 4.8 4.8 0.00 0.00 0.00 69 1011.5
20260506071025 31 0 3.2 3.2 0.00 0.00 0.00 70 1011.5
20260506070524 31 109 12.9 16.1 0.00 0.00 0.00 69 1011.5
20260506062024 32 9 11.3 11.3 0.00 0.00 0.00 67 1012.2
20260506061525 31 32 4.8 4.8 0.00 0.00 0.00 68 1012.5
20260506061025 32 27 6.4 8.0 0.00 0.00 0.00 67 1012.2
20260506060526 32 5 4.8 9.7 0.00 0.00 0.00 62 1012.2
20260506051024 32 196 1.6 3.2 0.00 0.00 0.00 64 1013.5
20260506050525 32 100 6.4 9.7 0.00 0.00 0.00 63 1013.5
20260506045025 32 162 4.8 4.8 0.00 0.00 0.00 63 1013.9
20260506044524 32 2 3.2 3.2 0.00 0.00 0.00 63 1013.5
20260506044024 31 336 4.8 4.8 0.00 0.00 0.00 64 1013.9
20260506043524 31 166 6.4 9.7 0.00 0.00 0.00 65 1013.9
20260506043025 31 127 8.0 9.7 0.00 0.00 0.00 65 1013.9
20260506042524 31 124 6.4 8.0 0.00 0.00 0.00 65 1013.9
20260506042024 31 130 4.8 8.0 0.00 0.00 0.00 65 1013.9
20260506041524 31 153 8.0 11.3 0.00 0.00 0.00 64 1013.9
20260506041025 31 136 6.4 8.0 0.00 0.00 0.00 65 1013.9
20260506040525 31 75 8.0 9.7 0.00 0.00 0.00 65 1013.9
20260506040025 31 165 3.2 3.2 0.00 0.00 0.00 65 1014.2
20260506035524 31 348 4.8 4.8 0.00 0.00 0.00 65 1014.6
20260506035026 31 190 1.6 1.6 0.00 0.00 0.00 67 1014.2
20260506034524 31 117 6.4 9.7 0.00 0.00 0.00 67 1014.2
20260506034025 31 106 9.7 11.3 0.00 0.00 0.00 67 1014.6
20260506033525 31 137 8.0 9.7 0.00 0.00 0.00 66 1014.6
20260506033026 31 216 3.2 4.8 0.00 0.00 0.00 66 1014.9
20260506032525 31 166 4.8 8.0 0.00 0.00 0.00 67 1014.9
20260506032026 31 159 1.6 3.2 0.00 0.00 0.00 67 1014.9
20260506031524 31 118 9.7 11.3 0.00 0.00 0.00 66 1014.9
20260506031025 31 118 6.4 8.0 0.00 0.00 0.00 65 1014.9
20260506030524 31 116 6.4 8.0 0.00 0.00 0.00 66 1014.9
20260506030026 31 143 11.3 11.3 0.00 0.00 0.00 65 1014.9
20260506025524 31 149 1.6 3.2 0.00 0.00 0.00 68 1014.9
20260506025024 31 136 11.3 14.5 0.00 0.00 0.00 67 1014.9
20260506024525 31 125 11.3 14.5 0.00 0.00 0.00 66 1014.9
20260506024024 31 136 9.7 11.3 0.00 0.00 0.00 65 1014.9
20260506023524 31 135 3.2 3.2 0.00 0.00 0.00 68 1015.2
20260506023024 31 80 8.0 11.3 0.00 0.00 0.00 68 1014.9
20260506022524 30 110 8.0 9.7 0.00 0.00 0.00 69 1014.9
20260506022024 31 76 6.4 9.7 0.00 0.00 0.00 69 1014.9
20260506021525 31 77 12.9 14.5 0.00 0.00 0.00 67 1015.2
20260506021024 30 83 8.0 11.3 0.00 0.00 0.00 71 1015.2
20260506020525 30 153 8.0 9.7 0.00 0.00 0.00 71 1015.2
20260506020024 30 120 8.0 9.7 0.00 0.00 0.00 72 1015.2
20260506015524 30 102 9.7 11.3 0.00 0.00 0.00 71 1015.2
20260506015025 30 131 6.4 9.7 0.00 0.00 0.00 72 1015.2
20260506014524 30 108 4.8 8.0 0.00 0.00 0.00 73 1015.2
20260506014024 30 220 3.2 4.8 0.00 0.00 0.00 75 1015.2
20260506013524 29 136 4.8 4.8 0.00 0.00 0.00 77 1015.2
20260506013025 29 200 3.2 4.8 0.00 0.00 0.00 77 1015.2
20260506012524 29 152 6.4 9.7 0.00 0.00 0.00 78 1015.2
20260506012024 29 124 9.7 11.3 0.00 0.00 0.00 78 1015.2
20260506011525 28 161 6.4 8.0 0.00 0.00 0.00 79 1015.6
20260506011030 28 173 4.8 4.8 0.00 0.00 0.00 79 1015.2
20260506010524 28 131 1.6 3.2 0.00 0.00 0.00 80 1015.6
20260506010024 28 123 6.4 8.0 0.00 0.00 0.00 82 1015.2
20260506005524 28 162 6.4 9.7 0.00 0.00 0.00 82 1015.2
20260506005025 28 123 6.4 8.0 0.00 0.00 0.00 81 1015.2
20260506004525 27 117 3.2 3.2 0.00 0.00 0.00 83 1015.2
20260506004024 27 131 3.2 3.2 0.00 0.00 0.00 84 1015.2
20260506003524 27 187 3.2 3.2 0.00 0.00 0.00 84 1015.2
20260506003025 27 179 1.6 1.6 0.00 0.00 0.00 84 1015.2
20260506002526 27 258 1.6 1.6 0.00 0.00 0.00 84 1015.2
20260506002025 27 195 3.2 3.2 0.00 0.00 0.00 84 1015.2
20260506001524 27 178 0.0 0.0 0.00 0.00 0.00 84 1015.2
20260506001024 27 143 1.6 1.6 0.00 0.00 0.00 86 1015.2
20260506000526 27 221 3.2 3.2 0.00 0.00 0.00 87 1015.2
20260506000024 27 218 1.6 1.6 0.00 0.00 0.00 87 1015.2
20260505235524 27 189 3.2 3.2 0.00 0.00 0.00 88 1015.2